When you browse on this site, cookies collect data to enhance your experience and personalize the content and advertising you see.
Visit our Privacy Policy to learn more. By continuing to use the site, you agree to this use of cookies and data.
  • In Spain
  • List of Countries
  • For 7 days
  • Water Temperature
  • Satellite Maps
  • Weather Map
  • Weather Widgets
  • user-avatar
    Login

    Hourly Weather Trzemietowo

    Today, 16 January, Wednesday

    Time Temperature Precipitation Wind Pressure Humidity
    00:00 +1°C° 0 mm 8 mps 738 mmHg 84%
    01:00 +2°C° 0 mm 5 mps 739 mmHg 83%
    02:00 +2°C° 0.1 mm 5 mps 739 mmHg 85%
    03:00 +2°C° 0.1 mm 5 mps 740 mmHg 87%
    04:00 +1°C° 0.1 mm 4 mps 740 mmHg 89%
    05:00 +1°C° 0.3 mm 4 mps 741 mmHg 91%
    06:00 +1°C° 0.3 mm 4 mps 741 mmHg 92%
    07:00 +2°C° 0.3 mm 3 mps 741 mmHg 93%
    08:00 +2°C° 0.3 mm 3 mps 741 mmHg 94%
    09:00 +3°C° 0.3 mm 4 mps 742 mmHg 94%
    10:00 +3°C° 0.3 mm 4 mps 742 mmHg 95%
    11:00 +3°C° 0 mm 5 mps 742 mmHg 91%
    12:00 +3°C° 0 mm 5 mps 742 mmHg 86%
    13:00 +4°C° 0 mm 6 mps 742 mmHg 82%
    14:00 +4°C° 0 mm 6 mps 742 mmHg 84%
    15:00 +4°C° 0 mm 6 mps 742 mmHg 86%
    16:00 +3°C° 0 mm 5 mps 742 mmHg 87%
    17:00 +3°C° 0 mm 6 mps 742 mmHg 87%
    18:00 +3°C° 0 mm 6 mps 741 mmHg 87%
    19:00 +3°C° 0 mm 6 mps 741 mmHg 87%
    20:00 +3°C° 0 mm 7 mps 741 mmHg 86%
    21:00 +3°C° 0 mm 7 mps 740 mmHg 86%
    22:00 +3°C° 0 mm 7 mps 740 mmHg 85%
    23:00 +2°C° 0 mm 7 mps 739 mmHg 84%

    Tomorrow, 17 January, Thursday

    Time Temperature Precipitation Wind Pressure Humidity
    00:00 +2°C° 0 mm 6 mps 739 mmHg 83%
    01:00 +2°C° 0 mm 6 mps 738 mmHg 83%
    02:00 0°C° 0 mm 7 mps 738 mmHg 80%
    03:00 0°C° 0 mm 7 mps 737 mmHg 78%
    04:00 0°C° 0 mm 7 mps 736 mmHg 76%
    05:00 0°C° 0 mm 8 mps 736 mmHg 76%
    06:00 0°C° 0 mm 8 mps 736 mmHg 75%
    07:00 0°C° 0 mm 8 mps 736 mmHg 75%
    08:00 +1°C° 0.1 mm 8 mps 736 mmHg 76%
    09:00 +1°C° 0.1 mm 8 mps 736 mmHg 77%
    10:00 +2°C° 0.1 mm 9 mps 736 mmHg 78%
    11:00 +2°C° 0 mm 9 mps 737 mmHg 73%
    12:00 +2°C° 0 mm 9 mps 737 mmHg 69%
    13:00 +3°C° 0 mm 9 mps 737 mmHg 64%
    14:00 +2°C° 0 mm 8 mps 737 mmHg 66%
    15:00 +3°C° 0 mm 7 mps 736 mmHg 68%
    16:00 +3°C° 0 mm 6 mps 736 mmHg 70%
    17:00 +2°C° 0.2 mm 6 mps 736 mmHg 72%
    18:00 +2°C° 0.2 mm 6 mps 736 mmHg 75%
    19:00 +2°C° 0.2 mm 5 mps 736 mmHg 78%
    20:00 +1°C° 0.5 mm 6 mps 736 mmHg 74%
    21:00 0°C° 0.5 mm 7 mps 736 mmHg 71%
    22:00 -1°C° 0.5 mm 8 mps 737 mmHg 67%
    23:00 -1°C° 0 mm 8 mps 737 mmHg 67%

    Day after tomorrow, 18 January, Friday

    Time Temperature Precipitation Wind Pressure Humidity
    00:00 -2°C° 0 mm 8 mps 737 mmHg 66%
    01:00 -4°C° 0 mm 9 mps 738 mmHg 66%
    02:00 -4°C° 0 mm 8 mps 738 mmHg 69%
    03:00 -4°C° 0 mm 8 mps 738 mmHg 72%
    04:00 -3°C° 0 mm 7 mps 738 mmHg 75%
    05:00 -3°C° 0.1 mm 7 mps 739 mmHg 77%
    06:00 -3°C° 0.1 mm 6 mps 740 mmHg 79%
    07:00 -3°C° 0.1 mm 6 mps 742 mmHg 81%
    08:00 -3°C° 0.1 mm 6 mps 743 mmHg 79%
    09:00 -3°C° 0.1 mm 6 mps 744 mmHg 76%
    10:00 -3°C° 0.1 mm 6 mps 746 mmHg 74%
    11:00 -3°C° 0 mm 6 mps 747 mmHg 69%
    12:00 -3°C° 0 mm 6 mps 748 mmHg 65%
    13:00 -2°C° 0 mm 6 mps 749 mmHg 60%
    14:00 -2°C° 0 mm 5 mps 749 mmHg 62%
    15:00 -2°C° 0 mm 4 mps 750 mmHg 65%
    16:00 -2°C° 0 mm 3 mps 750 mmHg 67%
    17:00 -2°C° 0 mm 3 mps 751 mmHg 70%
    18:00 -2°C° 0 mm 3 mps 751 mmHg 73%
    19:00 -3°C° 0 mm 4 mps 752 mmHg 76%
    20:00 -2°C° 0 mm 3 mps 752 mmHg 78%
    21:00 -2°C° 0 mm 3 mps 752 mmHg 80%
    22:00 -4°C° 0 mm 3 mps 752 mmHg 83%
    23:00 -4°C° 0 mm 4 mps 752 mmHg 83%

    19 January, Saturday

    Time Temperature Precipitation Wind Pressure Humidity
    00:00 -3°C° 0 mm 4 mps 752 mmHg 83%
    01:00 -3°C° 0 mm 4 mps 753 mmHg 83%
    02:00 -3°C° 0 mm 4 mps 752 mmHg 82%
    03:00 -3°C° 0 mm 4 mps 752 mmHg 82%
    04:00 -3°C° 0 mm 4 mps 752 mmHg 81%
    05:00 -4°C° 0 mm 4 mps 752 mmHg 82%
    06:00 -4°C° 0 mm 4 mps 752 mmHg 83%
    07:00 -4°C° 0 mm 3 mps 753 mmHg 84%
    08:00 -2°C° 0 mm 3 mps 753 mmHg 83%
    09:00 -2°C° 0 mm 3 mps 753 mmHg 82%
    10:00 -1°C° 0 mm 3 mps 753 mmHg 82%
    11:00 -1°C° 0 mm 3 mps 753 mmHg 80%
    12:00 0°C° 0 mm 3 mps 753 mmHg 78%
    13:00 0°C° 0 mm 3 mps 753 mmHg 76%
    14:00 +1°C° 0 mm 2 mps 753 mmHg 79%
    15:00 -1°C° 0 mm 2 mps 753 mmHg 82%
    16:00 -2°C° 0 mm 2 mps 753 mmHg 85%
    17:00 -2°C° 0 mm 2 mps 753 mmHg 86%
    18:00 -2°C° 0 mm 2 mps 753 mmHg 87%
    19:00 -2°C° 0 mm 2 mps 753 mmHg 87%
    20:00 -2°C° 0 mm 2 mps 753 mmHg 88%
    21:00 -3°C° 0 mm 2 mps 753 mmHg 88%
    22:00 -3°C° 0 mm 2 mps 753 mmHg 88%
    23:00 -3°C° 0 mm 2 mps 753 mmHg 88%

    20 January, Sunday

    Time Temperature Precipitation Wind Pressure Humidity
    00:00 -3°C° 0 mm 2 mps 753 mmHg 88%
    01:00 -3°C° 0 mm 2 mps 753 mmHg 88%
    02:00 -3°C° 0 mm 2 mps 753 mmHg 88%
    03:00 -3°C° 0 mm 2 mps 753 mmHg 88%
    04:00 -3°C° 0 mm 2 mps 753 mmHg 88%
    05:00 -3°C° 0 mm 2 mps 753 mmHg 88%
    06:00 -3°C° 0 mm 2 mps 753 mmHg 88%
    07:00 -3°C° 0 mm 2 mps 753 mmHg 88%
    08:00 -2°C° 0 mm 3 mps 753 mmHg 85%
    09:00 -2°C° 0 mm 3 mps 753 mmHg 81%
    10:00 -1°C° 0 mm 3 mps 754 mmHg 78%
    11:00 -2°C° 0 mm 4 mps 754 mmHg 76%
    12:00 -1°C° 0 mm 4 mps 754 mmHg 74%
    13:00 0°C° 0 mm 4 mps 754 mmHg 71%
    14:00 -1°C° 0 mm 4 mps 754 mmHg 73%
    15:00 -1°C° 0 mm 3 mps 754 mmHg 75%
    16:00 -2°C° 0 mm 3 mps 754 mmHg 77%
    17:00 -2°C° 0 mm 3 mps 755 mmHg 78%
    18:00 -4°C° 0 mm 3 mps 755 mmHg 78%
    19:00 -4°C° 0 mm 3 mps 756 mmHg 78%
    20:00 -4°C° 0 mm 3 mps 756 mmHg 77%
    21:00 -4°C° 0 mm 3 mps 757 mmHg 75%
    22:00 -5°C° 0 mm 3 mps 757 mmHg 74%
    23:00 -5°C° 0 mm 3 mps 758 mmHg 74%

    21 January, Monday

    Time Temperature Precipitation Wind Pressure Humidity
    00:00 -5°C° 0 mm 3 mps 758 mmHg 74%
    01:00 -4°C° 0 mm 2 mps 758 mmHg 74%
    02:00 -5°C° 0 mm 3 mps 759 mmHg 74%
    03:00 -5°C° 0 mm 3 mps 759 mmHg 75%
    04:00 -5°C° 0 mm 3 mps 759 mmHg 75%
    05:00 -4°C° 0 mm 2 mps 760 mmHg 75%
    06:00 -4°C° 0 mm 2 mps 760 mmHg 75%
    07:00 -4°C° 0 mm 2 mps 760 mmHg 75%
    08:00 -4°C° 0 mm 2 mps 761 mmHg 72%
    09:00 -4°C° 0 mm 2 mps 761 mmHg 70%
    10:00 -3°C° 0 mm 2 mps 761 mmHg 67%
    11:00 -2°C° 0 mm 2 mps 762 mmHg 64%
    12:00 -2°C° 0 mm 2 mps 762 mmHg 61%
    13:00 -1°C° 0 mm 2 mps 762 mmHg 58%
    14:00 -2°C° 0 mm 2 mps 762 mmHg 60%
    15:00 -2°C° 0 mm 2 mps 762 mmHg 63%
    16:00 -3°C° 0 mm 2 mps 762 mmHg 65%
    17:00 -3°C° 0 mm 2 mps 761 mmHg 66%
    18:00 -3°C° 0 mm 2 mps 761 mmHg 67%
    19:00 -4°C° 0 mm 2 mps 761 mmHg 68%
    20:00 -4°C° 0 mm 2 mps 761 mmHg 69%
    21:00 -5°C° 0 mm 3 mps 761 mmHg 69%
    22:00 -5°C° 0 mm 3 mps 761 mmHg 70%
    23:00 -5°C° 0 mm 3 mps 761 mmHg 70%
    Show more